Torna al catalogo

ONEWEB-0107

AttivoComunicazioniPO
NORAD 48048·PAYLOAD·🇬🇧 United Kingdom

Lanciato Mar 25, 2021 da Vostochny Cosmodrome

Loading…

Prossimi Passaggi (prossime 24 ore)

TLE

AggiornatoSource: CelesTrak SupGP

Epoca: Sep 14, 2026, 15:13 UTC

1 48048C 21025G   26257.63418241 -.00000280  00000+0 -76673-3 0  2575
2 48048  87.8923 302.4223 0001757  98.5969   0.2426 13.13469956    17

Traccia ONEWEB-0107 in tempo reale con AllMySat

Download on the App Store